Location: 81360 Arifat, France
(43.7204°N, 2.3408°E)
Time: 04:15:07
(UTC+02:00)

X-37B - Visible Passes

Search period start: 27 September 2021 00:00
Search period end: 07 October 2021 00:00
Orbit: 381 x 393 km, 45.0° (Epoch: 29 August)

Date Brightness Start Highest point End Pass type
(mag) Time Alt. Az. Time Alt. Az. Time Alt. Az.
27 Sep 3.0 05:21:20 23° E 05:21:20 23° E 05:22:40 10° ENE visible
27 Sep 0.8 06:53:37 14° W 06:56:13 66° N 06:59:22 10° E visible
28 Sep 0.7 05:57:54 67° NNE 05:57:54 67° NNE 06:00:56 10° E visible
29 Sep 4.0 05:02:12 12° ENE 05:02:12 12° ENE 05:02:32 10° ENE visible
29 Sep 0.6 06:34:29 26° WNW 06:36:07 74° N 06:39:17 10° E visible
30 Sep 2.2 05:38:49 35° ENE 05:38:49 35° ENE 05:40:50 10° E visible
30 Sep 0.7 07:11:14 10° W 07:14:21 62° SSW 07:17:29 10° ESE visible
01 Oct 0.4 06:15:30 60° W 06:16:00 88° SSW 06:19:09 10° ESE visible
02 Oct 3.5 05:19:58 16° E 05:19:58 16° E 05:20:45 10° E visible
02 Oct 1.3 06:52:16 19° W 06:54:08 38° SSW 06:57:06 10° SE visible
03 Oct 1.7 05:56:49 37° SE 05:56:49 37° SE 05:58:56 10° ESE visible
04 Oct 1.9 06:33:47 23° SSW 06:33:51 23° SSW 06:36:26 10° SSE visible
